Terminal Aerodrome Forecast
Issued by NWS

Home | Current Version | Previous Version | Graphics & Text | Print | Product List | Glossary On
Versions: 1 2 3 4 5 6 7 8 9 10 11 12 13 14 15 16 17 18 19 20 21 22 23 24 25 26
670
FTUS43 KABR 261334 AAA
TAFPIR
TAF AMD
KPIR 261334Z 2614/2712 15005KT P6SM FEW250
     FM261600 17011KT P6SM SCT250
     FM262000 14012KT P6SM VCTS SCT250CB
     FM262300 09010KT P6SM -SHRA VCTS BKN090CB
     FM270300 04012KT P6SM SHRA VCTS BKN090CB
     FM270500 08008KT P6SM BKN200
     FM271000 03004KT P6SM BKN080=

USA.gov is the U.S. government's official web portal to all federal, state and local government web resources and services.